| time (UTC) | temp F | wind direction | speed MPH | gust MPH | rain 1hr in | rain 24hr in | rain mn in | humidity % | barometer mb |
| 20260509081526 | 61 | 91 | 1.0 | 3.0 | 0.00 | 0.00 | 0.00 | 66 | 1017.7 |
| 20260509080017 | 60 | 74 | 2.0 | 4.0 | 0.00 | 0.00 | 0.00 | 68 | 1017.6 |
| 20260509074524 | 60 | 88 | 2.0 | 4.0 | 0.00 | 0.00 | 0.00 | 67 | 1017.8 |
| 20260509073014 | 59 | 101 | 0.0 | 3.0 | 0.00 | 0.00 | 0.00 | 69 | 1017.8 |
| 20260509071510 | 58 | 82 | 1.0 | 4.0 | 0.00 | 0.00 | 0.00 | 71 | 1017.8 |
| 20260509070011 | 56 | 77 | 0.0 | 2.0 | 0.00 | 0.00 | 0.00 | 74 | 1017.7 |
| 20260509064505 | 56 | 74 | 0.0 | 3.0 | 0.00 | 0.00 | 0.00 | 74 | 1017.7 |
| 20260509063002 | 55 | 71 | 0.0 | 4.0 | 0.00 | 0.00 | 0.00 | 76 | 1017.7 |
| 20260509061606 | 54 | 74 | 0.0 | 2.0 | 0.00 | 0.00 | 0.00 | 78 | 1017.7 |
| 20260509060057 | 53 | 65 | 0.0 | 1.0 | 0.00 | 0.00 | 0.00 | 81 | 1017.7 |
| 20260509054601 | 52 | 65 | 0.0 | 1.0 | 0.00 | 0.00 | 0.00 | 82 | 1017.8 |
| 20260509053058 | 51 | 65 | 0.0 | 0.0 | 0.00 | 0.00 | 0.00 | 84 | 1017.7 |
| 20260509051552 | 49 | 65 | 0.0 | 0.0 | 0.00 | 0.00 | 0.00 | 90 | 1017.6 |
| 20260509050050 | 47 | 65 | 0.0 | 0.0 | 0.00 | 0.00 | 0.00 | 91 | 1017.6 |
| 20260509044549 | 46 | 65 | 0.0 | 0.0 | 0.00 | 0.00 | 0.00 | 91 | 1017.6 |
| 20260509043048 | 45 | 65 | 0.0 | 0.0 | 0.00 | 0.00 | 0.00 | 91 | 1017.5 |
| 20260509041614 | 45 | 65 | 0.0 | 0.0 | 0.00 | 0.00 | 0.00 | 92 | 1017.5 |
| 20260509040047 | 45 | 65 | 0.0 | 0.0 | 0.00 | 0.00 | 0.00 | 92 | 1017.5 |
| 20260509034548 | 45 | 65 | 0.0 | 0.0 | 0.00 | 0.00 | 0.00 | 91 | 1017.6 |
| 20260509033047 | 44 | 65 | 0.0 | 0.0 | 0.00 | 0.00 | 0.00 | 91 | 1017.5 |
| 20260509031546 | 45 | 65 | 0.0 | 0.0 | 0.00 | 0.00 | 0.00 | 91 | 1017.6 |
| 20260509030047 | 45 | 65 | 0.0 | 0.0 | 0.00 | 0.00 | 0.00 | 91 | 1017.8 |
| 20260509024544 | 45 | 65 | 0.0 | 0.0 | 0.00 | 0.00 | 0.00 | 90 | 1017.7 |
| 20260509023100 | 45 | 65 | 0.0 | 0.0 | 0.00 | 0.00 | 0.00 | 90 | 1017.6 |
| 20260509021541 | 45 | 65 | 0.0 | 0.0 | 0.00 | 0.00 | 0.00 | 90 | 1017.6 |
| 20260509020051 | 46 | 65 | 0.0 | 0.0 | 0.00 | 0.00 | 0.00 | 89 | 1017.6 |
| 20260509014540 | 46 | 65 | 0.0 | 0.0 | 0.00 | 0.00 | 0.00 | 89 | 1017.6 |
| 20260509013044 | 46 | 65 | 0.0 | 0.0 | 0.00 | 0.00 | 0.00 | 89 | 1017.4 |
| 20260509011537 | 46 | 65 | 0.0 | 0.0 | 0.00 | 0.00 | 0.00 | 89 | 1017.4 |
| 20260509010039 | 47 | 65 | 0.0 | 0.0 | 0.00 | 0.00 | 0.00 | 88 | 1017.5 |
| 20260509004535 | 47 | 65 | 0.0 | 0.0 | 0.00 | 0.00 | 0.00 | 88 | 1017.4 |
| 20260509003032 | 48 | 65 | 0.0 | 0.0 | 0.00 | 0.00 | 0.00 | 87 | 1017.4 |
| 20260509001530 | 48 | 65 | 0.0 | 0.0 | 0.00 | 0.00 | 0.00 | 86 | 1017.4 |
| 20260509000029 | 48 | 65 | 0.0 | 0.0 | 0.00 | 0.00 | 0.00 | 86 | 1017.4 |
| 20260508234530 | 49 | 65 | 0.0 | 0.0 | 0.00 | 0.00 | 0.00 | 86 | 1017.5 |
| 20260508233024 | 49 | 65 | 0.0 | 0.0 | 0.00 | 0.00 | 0.00 | 85 | 1017.5 |
| 20260508231523 | 49 | 65 | 0.0 | 0.0 | 0.00 | 0.00 | 0.00 | 85 | 1017.5 |
| 20260508230034 | 49 | 65 | 0.0 | 0.0 | 0.00 | 0.00 | 0.00 | 85 | 1017.5 |
| 20260508224526 | 50 | 65 | 0.0 | 0.0 | 0.00 | 0.00 | 0.00 | 84 | 1017.5 |
| 20260508223026 | 50 | 65 | 0.0 | 0.0 | 0.00 | 0.00 | 0.00 | 83 | 1017.6 |
| 20260508221518 | 50 | 65 | 0.0 | 0.0 | 0.00 | 0.00 | 0.00 | 82 | 1017.6 |
| 20260508220023 | 51 | 65 | 0.0 | 0.0 | 0.00 | 0.00 | 0.00 | 82 | 1017.6 |
| 20260508214525 | 51 | 65 | 0.0 | 0.0 | 0.00 | 0.00 | 0.00 | 81 | 1017.6 |
| 20260508213015 | 52 | 65 | 0.0 | 0.0 | 0.00 | 0.00 | 0.00 | 80 | 1017.4 |
| 20260508211529 | 53 | 65 | 0.0 | 0.0 | 0.00 | 0.00 | 0.00 | 78 | 1017.4 |
| 20260508210014 | 54 | 65 | 0.0 | 0.0 | 0.00 | 0.00 | 0.00 | 76 | 1017.3 |
| 20260508204515 | 54 | 65 | 0.0 | 0.0 | 0.00 | 0.00 | 0.00 | 75 | 1017.3 |
| 20260508203013 | 55 | 65 | 0.0 | 0.0 | 0.00 | 0.00 | 0.00 | 74 | 1017.3 |
| 20260508201515 | 56 | 65 | 0.0 | 0.0 | 0.00 | 0.00 | 0.00 | 73 | 1017.2 |
| 20260508200012 | 57 | 65 | 0.0 | 0.0 | 0.00 | 0.00 | 0.00 | 72 | 1017.1 |
| 20260508194525 | 57 | 65 | 0.0 | 0.0 | 0.00 | 0.00 | 0.00 | 70 | 1016.9 |
| 20260508193011 | 58 | 65 | 0.0 | 1.0 | 0.00 | 0.00 | 0.00 | 69 | 1016.8 |
| 20260508191511 | 58 | 65 | 0.0 | 0.0 | 0.00 | 0.00 | 0.00 | 69 | 1016.6 |
| 20260508190013 | 59 | 65 | 0.0 | 0.0 | 0.00 | 0.00 | 0.00 | 67 | 1016.4 |
| 20260508184510 | 60 | 65 | 0.0 | 2.0 | 0.00 | 0.00 | 0.00 | 65 | 1016.1 |
| 20260508183019 | 61 | 65 | 0.0 | 3.0 | 0.00 | 0.00 | 0.00 | 64 | 1015.8 |
| 20260508181510 | 61 | 64 | 1.0 | 4.0 | 0.00 | 0.00 | 0.00 | 63 | 1015.6 |
| 20260508180013 | 62 | 40 | 1.0 | 4.0 | 0.00 | 0.00 | 0.00 | 62 | 1015.6 |
| 20260508174508 | 62 | 82 | 0.0 | 2.0 | 0.00 | 0.00 | 0.00 | 62 | 1015.5 |
| 20260508173007 | 63 | 90 | 0.0 | 3.0 | 0.00 | 0.00 | 0.00 | 62 | 1015.3 |
| 20260508171508 | 63 | 109 | 0.0 | 2.0 | 0.00 | 0.00 | 0.00 | 61 | 1015.1 |
| 20260508170007 | 64 | 36 | 0.0 | 4.0 | 0.00 | 0.00 | 0.00 | 61 | 1015.1 |
| 20260508164511 | 65 | 85 | 1.0 | 5.0 | 0.00 | 0.00 | 0.00 | 59 | 1015.1 |
| 20260508163010 | 66 | 76 | 0.0 | 2.0 | 0.00 | 0.00 | 0.00 | 59 | 1015.0 |
| 20260508161510 | 66 | 80 | 0.0 | 4.0 | 0.00 | 0.00 | 0.00 | 58 | 1014.9 |
| 20260508160006 | 66 | 86 | 0.0 | 3.0 | 0.00 | 0.00 | 0.00 | 58 | 1015.0 |
| 20260508154504 | 66 | 77 | 1.0 | 3.0 | 0.00 | 0.00 | 0.00 | 58 | 1015.1 |
| 20260508153003 | 67 | 97 | 0.0 | 4.0 | 0.00 | 0.00 | 0.00 | 57 | 1015.1 |
| 20260508151501 | 68 | 83 | 0.0 | 2.0 | 0.00 | 0.00 | 0.00 | 55 | 1015.3 |
| 20260508150100 | 66 | 87 | 0.0 | 2.0 | 0.00 | 0.00 | 0.00 | 58 | 1015.3 |
| 20260508144609 | 65 | 85 | 0.0 | 2.0 | 0.00 | 0.00 | 0.00 | 59 | 1015.5 |
| 20260508143105 | 68 | 72 | 0.0 | 3.0 | 0.00 | 0.00 | 0.00 | 54 | 1015.6 |
| 20260508141604 | 68 | 280 | 0.0 | 2.0 | 0.00 | 0.00 | 0.00 | 55 | 1015.7 |
| 20260508140053 | 66 | 174 | 0.0 | 2.0 | 0.00 | 0.00 | 0.00 | 55 | 1015.9 |
| 20260508134616 | 66 | 96 | 0.0 | 1.0 | 0.00 | 0.00 | 0.00 | 56 | 1016.1 |
| 20260508133058 | 68 | 346 | 0.0 | 2.0 | 0.00 | 0.00 | 0.00 | 53 | 1016.1 |
| 20260508131551 | 67 | 253 | 0.0 | 2.0 | 0.00 | 0.00 | 0.00 | 52 | 1016.2 |
| 20260508130047 | 67 | 67 | 0.0 | 2.0 | 0.00 | 0.00 | 0.00 | 58 | 1016.3 |
| 20260508124544 | 65 | 68 | 0.0 | 3.0 | 0.00 | 0.01 | 0.00 | 62 | 1016.4 |
| 20260508123049 | 65 | 49 | 1.0 | 3.0 | 0.00 | 0.01 | 0.00 | 58 | 1016.6 |
| 20260508121546 | 65 | 242 | 0.0 | 2.0 | 0.00 | 0.01 | 0.00 | 57 | 1016.6 |
| 20260508120042 | 64 | 33 | 0.0 | 3.0 | 0.00 | 0.01 | 0.00 | 62 | 1016.7 |
| 20260508114541 | 66 | 57 | 0.0 | 2.0 | 0.00 | 0.01 | 0.00 | 56 | 1016.7 |
| 20260508113040 | 65 | 280 | 0.0 | 2.0 | 0.00 | 0.01 | 0.00 | 56 | 1016.8 |
| 20260508111539 | 65 | 78 | 0.0 | 2.0 | 0.00 | 0.01 | 0.00 | 60 | 1016.9 |
| 20260508110034 | 64 | 94 | 0.0 | 3.0 | 0.00 | 0.01 | 0.00 | 62 | 1016.9 |
| 20260508104534 | 64 | 105 | 0.0 | 3.0 | 0.00 | 0.01 | 0.00 | 64 | 1017.2 |
| 20260508103035 | 62 | 85 | 0.0 | 2.0 | 0.00 | 0.01 | 0.00 | 65 | 1017.2 |
| 20260508101534 | 62 | 80 | 0.0 | 1.0 | 0.00 | 0.01 | 0.00 | 63 | 1017.3 |
| 20260508100030 | 62 | 74 | 0.0 | 2.0 | 0.00 | 0.01 | 0.00 | 60 | 1017.4 |
| 20260508094528 | 62 | 50 | 1.0 | 3.0 | 0.00 | 0.01 | 0.00 | 66 | 1017.5 |
| 20260508093027 | 61 | 64 | 1.0 | 3.0 | 0.00 | 0.01 | 0.00 | 66 | 1017.6 |
| 20260508091525 | 61 | 88 | 0.0 | 3.0 | 0.00 | 0.01 | 0.00 | 70 | 1017.6 |
| 20260508090039 | 60 | 86 | 0.0 | 3.0 | 0.00 | 0.01 | 0.00 | 72 | 1017.6 |
| 20260508084519 | 59 | 84 | 0.0 | 3.0 | 0.00 | 0.02 | 0.00 | 74 | 1017.6 |
| 20260508083020 | 58 | 30 | 1.0 | 4.0 | 0.00 | 0.02 | 0.00 | 73 | 1017.6 |